Location: Norton
(51.3000°N, 0.8167°E)
Time: 13:31:05
(UTC+00:00)

Cosmos 1602 - Pass Details

Date: 03 March 2021
Orbit: 512 x 534 km, 82.5° (Epoch: 10 April)

Event Time Altitude Azimuth Distance (km) Brightness Sun altitude
Rises 18:39:59 0° 188° (S) 2,654 7.4 -10.0°
Reaches altitude 10° 18:42:07 10° 188° (S) 1,773 6.5 -10.3°
Maximum altitude 18:46:01 87° 100° (E) 540 3.7 -10.9°
Drops below altitude 10° 18:49:58 10° 11° (N) 1,798 6.4 -11.5°
Sets 18:52:08 0° 11° (N) 2,696 7.3 -11.9°
